[[{"header":{"parameterUnit":"m.s-1","parameterCategory":1,"la1":30.2991,"la2":30.254,"lo1":-89.0895,"lo2":-89.0444,"dy":0.0017,"dx":0.0017,"nx":28,"ny":28,"refTime":"2025-03-23T21:00:00:Z","depth":0,"parameterNumber":2,"parameterNumberName":"U-component_of_WINDS"},"data":[0,0,0,0,0,0,0,0,0,0,0,0,0,0,0,0,0,0,0,0,0,0,0,0,0,0,0,0,0,0,0,0,0,0,0,0,0,0,0,0,0,0,0,0,0,0,0,0,0,0,0,0,0,0,0,0,0,0,0.5258,0.5258,0,0.5316,0.5317,0.5317,0.5375,0.5375,0.5376,0.5377,0.5436,0.5437,0.5438,0,0,0,0,0,0,0,0,0,0,0,0,0,0.5195,0.5196,0.5258,0.5258,0.5259,0.5316,0.5317,0.5318,0.5375,0.5375,0.5376,0.5377,0.5436,0.5437,0.5438,0,0,0,0,0,0,0,0,0,0,0,0,0,0.5234,0.5196,0.5258,0.5294,0.5298,0.5316,0.5317,0.5318,0.5374,0.5376,0.5377,0.5378,0.5436,0.5437,0.5438,0.5424,0,0,0.5442,0.5443,0,0,0,0,0,0,0,0,0.5232,0.5237,0.5288,0.5292,0.5296,0.5339,0.5317,0.5353,0.5374,0.5345,0.5377,0.5378,0.5403,0.5407,0.5416,0.5427,0.5429,0.5443,0.5443,0.5444,0.5444,0,0,0,0,0,0,0,0.5229,0.5235,0.5281,0.5289,0.5294,0.5308,0.5315,0.5324,0.5367,0.5348,0.5352,0.5359,0.5406,0.5414,0.5418,0.543,0.5443,0.5444,0.5445,0.5445,0.5432,0.5431,0,0,0,0,0,0,0.5221,0.5232,0.5279,0.5283,0.5266,0.5308,0.5316,0.5324,0.5367,0.5375,0.5357,0.5361,0.5412,0.5416,0.542,0.5406,0.5444,0.5445,0.5446,0.5433,0.5432,0.5431,0,0,0,0,0,0,0.5219,0.5225,0.5277,0.5258,0.5266,0.5308,0.5317,0.5325,0.5334,0.5375,0.5383,0.5358,0.5413,0.5418,0.5423,0.5409,0.5446,0.5447,0.5435,0.5433,0.5431,0.5378,0,0,0,0,0,0,0.5217,0.5224,0.5219,0.5258,0.5267,0.5279,0.5316,0.5325,0.5336,0.5341,0.5378,0.5385,0.5414,0.542,0.5424,0.5412,0.5448,0.5436,0.5434,0.5432,0.5382,0.5375,0.5369,0,0,0,0,0,0.5215,0.5202,0.5219,0.5224,0.5262,0.5278,0.5283,0.5317,0.5335,0.533,0.5356,0.5384,0.5409,0.542,0.5425,0.5413,0.5437,0.5435,0.5432,0.5384,0.5376,0.537,0,0,0,0,0,0,0.5161,0.5208,0.5227,0.5226,0.5247,0.5287,0.5283,0.5307,0.5324,0.5328,0.5369,0.5377,0.5377,0.5395,0.5406,0.5401,0.5427,0.5425,0.5389,0.5382,0.5376,0.5372,0.5449,0,0,0,0,0,0.5149,0.5158,0.5198,0.5193,0.5203,0.5241,0.5249,0.5273,0.5297,0.5306,0.5333,0.5355,0.5368,0.5376,0.539,0.5384,0.5393,0.5378,0.5372,0.5366,0.5365,0.5363,0.5356,0.5422,0.5422,0.5422,0,0,0.5124,0.5151,0.5154,0.5183,0.5203,0.5211,0.5248,0.5256,0.5262,0.5308,0.5314,0.5333,0.5361,0.536,0.536,0.5375,0.5348,0.5363,0.5359,0.536,0.5359,0.5353,0.5347,0.5421,0.5421,0.5421,0,0,0.5083,0.5104,0.5103,0.5121,0.515,0.5175,0.5174,0.521,0.5225,0.5232,0.5266,0.5274,0.5296,0.5314,0.5326,0.529,0.5316,0.5293,0.5262,0.526,0.5254,0.525,0.5238,0.5233,0.5291,0.5291,0.5291,0,0.5049,0.5063,0.5099,0.5104,0.5116,0.5156,0.5155,0.5171,0.5203,0.521,0.5225,0.5253,0.5274,0.5278,0.5269,0.5277,0.5278,0.529,0.5252,0.5248,0.5245,0.5233,0.5228,0.5288,0.5289,0.5289,0.5289,0,0.502,0.5029,0.5024,0.5054,0.5065,0.5066,0.5102,0.5108,0.5131,0.5154,0.516,0.5186,0.5206,0.5209,0.5231,0.5215,0.5223,0.5245,0.5272,0.5235,0.5225,0.5221,0.5284,0.5285,0.5286,0.5287,0,0,0.4948,0.4997,0.4994,0.5008,0.5042,0.505,0.5053,0.5072,0.5077,0.5097,0.5101,0.5118,0.5138,0.5151,0.5175,0.5173,0.5143,0.5195,0.5196,0.5184,0.5127,0.5111,0.5106,0.5159,0.5159,0.5158,0.5125,0,0.4914,0.4923,0.4954,0.4953,0.4962,0.5,0.5002,0.5023,0.5044,0.5054,0.5078,0.5089,0.5114,0.5123,0.5122,0.5147,0.5132,0.5149,0.5163,0.5163,0.5156,0.51,0.5084,0.5051,0.5121,0.5121,0.512,0,0.4876,0.4893,0.4893,0.4926,0.4931,0.4933,0.4953,0.4962,0.4986,0.5002,0.5016,0.5042,0.5047,0.5072,0.5079,0.509,0.5097,0.511,0.511,0.5113,0.514,0.5103,0.5042,0.5037,0.5114,0.5115,0.5115,0,0.4824,0.4848,0.485,0.4861,0.4899,0.49,0.4916,0.4941,0.495,0.4968,0.4974,0.4991,0.5001,0.5014,0.5044,0.5059,0.5048,0.5075,0.5061,0.506,0.5058,0.5058,0.4998,0.5061,0.5061,0.5061,0.5061,0,0.4784,0.4782,0.4828,0.483,0.4829,0.4864,0.4862,0.4882,0.4903,0.4909,0.4943,0.4948,0.4987,0.4996,0.502,0.5022,0.5026,0.5039,0.5046,0.5037,0.5035,0.5043,0.5046,0.506,0.506,0.506,0.5061,0,0.4727,0.4757,0.4763,0.4798,0.4807,0.4805,0.4835,0.4838,0.4861,0.4868,0.4871,0.4907,0.4919,0.495,0.4971,0.4987,0.4983,0.4994,0.4975,0.4979,0.4963,0.4964,0.4907,0.4901,0.4967,0.4966,0.4966,0,0.4699,0.4699,0.4734,0.4741,0.4755,0.4765,0.4775,0.4809,0.4818,0.4844,0.4844,0.4858,0.4872,0.489,0.4917,0.4933,0.4946,0.4924,0.4948,0.4939,0.4946,0.4946,0.4946,0.4919,0.4918,0.4918,0.4917,0,0.4647,0.4662,0.4675,0.4693,0.4703,0.4719,0.4736,0.4739,0.4778,0.4785,0.4798,0.4809,0.4829,0.4844,0.4863,0.488,0.4904,0.4909,0.4907,0.4898,0.4887,0.4893,0.4961,0.491,0.4911,0.4912,0.4912,0.4912,0.4605,0.4606,0.4631,0.4644,0.466,0.4675,0.468,0.4702,0.4714,0.4733,0.4752,0.4763,0.4786,0.4815,0.4829,0.4838,0.4851,0.4847,0.4846,0.4845,0.4841,0.4884,0.4841,0.4842,0.4842,0.4842,0.4842,0,0.4555,0.4573,0.4584,0.4607,0.4617,0.4639,0.4659,0.4665,0.4674,0.4694,0.4706,0.4721,0.4734,0.4762,0.4778,0.4779,0.4791,0.4782,0.4783,0.4786,0.4829,0.4829,0.4773,0.4773,0.4773,0.4773,0.4773,0.4773,0.453,0.4534,0.4551,0.4562,0.458,0.4591,0.46,0.4614,0.4629,0.4644,0.4655,0.4673,0.4696,0.4713,0.4726,0.4734,0.4739,0.4726,0.4737,0.4777,0.4783,0.479,0.4791,0.4727,0.4727,0.4695,0.4694,0.4694]},{"header":{"parameterUnit":"m.s-1","parameterCategory":1,"la1":30.2991,"la2":30.254,"lo1":-89.0895,"lo2":-89.0444,"dy":0.0017,"dx":0.0017,"nx":28,"ny":28,"refTime":"2025-03-23T21:00:00:Z","depth":0,"parameterNumber":3,"parameterNumberName":"V-component_of_WINDS"},"data":[0,0,0,0,0,0,0,0,0,0,0,0,0,0,0,0,0,0,0,0,0,0,0,0,0,0,0,0,0,0,0,0,0,0,0,0,0,0,0,0,0,0,0,0,0,0,0,0,0,0,0,0,0,0,0,0,0,0,1.1601,1.16,0,1.1585,1.1585,1.1585,1.1612,1.1613,1.1613,1.1614,1.1595,1.1594,1.1592,0,0,0,0,0,0,0,0,0,0,0,0,0,1.1649,1.1648,1.1601,1.16,1.16,1.1585,1.1585,1.1585,1.1612,1.1613,1.1614,1.1615,1.1595,1.1594,1.1592,0,0,0,0,0,0,0,0,0,0,0,0,0,1.163,1.1648,1.1601,1.1612,1.1613,1.1586,1.1585,1.1585,1.1611,1.1613,1.1614,1.1615,1.1596,1.1594,1.1592,1.1552,0,0,1.1586,1.1585,0,0,0,0,0,0,0,0,1.1631,1.1628,1.161,1.1611,1.1612,1.1602,1.1595,1.1574,1.1611,1.1612,1.1614,1.1616,1.1596,1.1594,1.1588,1.1551,1.155,1.1586,1.1584,1.1583,1.1583,0,0,0,0,0,0,0,1.1633,1.1629,1.1595,1.161,1.1611,1.1616,1.1615,1.1591,1.1596,1.1612,1.1614,1.1612,1.1597,1.159,1.1588,1.155,1.1586,1.1584,1.1583,1.1582,1.1479,1.1478,0,0,0,0,0,0,1.1633,1.163,1.1595,1.1594,1.1625,1.1614,1.1613,1.1604,1.1597,1.1597,1.1611,1.1613,1.1593,1.159,1.1587,1.1539,1.1583,1.1582,1.158,1.1481,1.1479,1.1477,0,0,0,0,0,0,1.1634,1.163,1.1596,1.1613,1.1609,1.1612,1.1601,1.1603,1.1596,1.1596,1.1596,1.1603,1.1594,1.159,1.1561,1.1539,1.1581,1.1579,1.1482,1.148,1.1478,1.1444,0,0,0,0,0,0,1.1635,1.163,1.1615,1.1612,1.1608,1.157,1.16,1.1601,1.1593,1.1596,1.1589,1.1589,1.1595,1.1564,1.1559,1.1537,1.1577,1.1484,1.1481,1.1479,1.1447,1.1441,1.1435,0,0,0,0,0,1.1637,1.1606,1.1615,1.161,1.159,1.1569,1.1566,1.1575,1.1591,1.1576,1.1576,1.1589,1.1543,1.156,1.1555,1.1532,1.1486,1.1482,1.1479,1.1449,1.1442,1.1435,0,0,0,0,0,0,1.1605,1.1606,1.1615,1.1583,1.1576,1.1574,1.1555,1.1566,1.1554,1.1557,1.1566,1.1565,1.1533,1.153,1.155,1.1493,1.1517,1.1512,1.1496,1.1489,1.1483,1.1484,1.1575,0,0,0,0,0,1.1594,1.1579,1.1579,1.155,1.1547,1.1551,1.1542,1.1549,1.1542,1.1539,1.1537,1.1528,1.1512,1.15,1.1485,1.1447,1.1445,1.1429,1.1423,1.1418,1.1414,1.1392,1.1385,1.1466,1.1466,1.1466,0,0,1.1572,1.157,1.1559,1.1544,1.1539,1.1521,1.1549,1.1529,1.1515,1.1536,1.1508,1.1506,1.1497,1.1463,1.1448,1.1459,1.1391,1.1414,1.141,1.1408,1.1388,1.1381,1.1374,1.1464,1.1464,1.1464,0,0,1.1521,1.1519,1.1494,1.149,1.1483,1.1486,1.1481,1.1477,1.1477,1.1449,1.1464,1.1448,1.1419,1.1412,1.1405,1.1352,1.1363,1.1347,1.1316,1.1295,1.1289,1.1283,1.1263,1.1256,1.1343,1.1342,1.1342,0,1.1493,1.1468,1.148,1.1459,1.1451,1.1471,1.1445,1.1439,1.1427,1.1421,1.1435,1.1399,1.1395,1.1359,1.1346,1.134,1.1332,1.1347,1.1289,1.1284,1.1279,1.126,1.1252,1.134,1.1341,1.1341,1.1341,0,1.1434,1.1416,1.1397,1.1386,1.1377,1.1353,1.136,1.1348,1.1356,1.1358,1.1329,1.1325,1.1309,1.1301,1.1308,1.1266,1.1273,1.1288,1.1312,1.1269,1.1251,1.1244,1.1337,1.1338,1.1339,1.1339,0,0,1.1361,1.1359,1.1351,1.1346,1.1341,1.1327,1.1304,1.129,1.1279,1.127,1.125,1.1226,1.124,1.1231,1.1238,1.122,1.1177,1.1237,1.1237,1.1225,1.1129,1.1117,1.1109,1.1185,1.1184,1.1183,1.1129,0,1.131,1.1273,1.1282,1.1244,1.1227,1.1246,1.1226,1.122,1.1221,1.1206,1.1206,1.1189,1.1209,1.1204,1.1187,1.1186,1.1158,1.119,1.1165,1.1164,1.1166,1.11,1.1087,1.1037,1.1123,1.1122,1.1121,0,1.1246,1.1236,1.1196,1.1194,1.1187,1.1169,1.1156,1.1142,1.1135,1.1137,1.1128,1.1138,1.1114,1.1139,1.1106,1.1128,1.1118,1.1116,1.1115,1.1111,1.1139,1.1093,1.1021,1.1013,1.111,1.1111,1.1112,0,1.1195,1.1172,1.1146,1.1141,1.1137,1.1124,1.1122,1.1116,1.1107,1.1096,1.109,1.1075,1.1067,1.1055,1.1061,1.1079,1.1026,1.1051,1.1025,1.1025,1.1012,1.1013,1.0936,1.1008,1.1008,1.1009,1.1009,0,1.1137,1.1111,1.1123,1.1106,1.1078,1.1089,1.1061,1.106,1.1056,1.1038,1.1053,1.1036,1.1046,1.1029,1.1033,1.1004,1.1001,1.1,1.1002,1.0998,1.0998,1.0991,1.0994,1.1007,1.1007,1.1007,1.1008,0,1.1075,1.1082,1.1054,1.1053,1.1053,1.1032,1.1031,1.1015,1.1017,1.0995,1.099,1.0994,1.0975,1.098,1.096,1.0962,1.0926,1.0932,1.0928,1.0929,1.0903,1.0904,1.0817,1.0806,1.0887,1.0886,1.0886,0,1.1036,1.1018,1.1015,1.1006,1.1003,1.0986,1.0977,1.0988,1.0977,1.0968,1.0953,1.0936,1.0923,1.0892,1.0892,1.0876,1.0881,1.0851,1.0878,1.0875,1.0879,1.0879,1.0877,1.0845,1.0845,1.0844,1.0843,0,1.0967,1.0971,1.0959,1.0947,1.0936,1.0927,1.0919,1.0909,1.0919,1.0906,1.0888,1.0878,1.0858,1.084,1.0826,1.0822,1.0833,1.0835,1.0828,1.0824,1.0822,1.0821,1.0912,1.0837,1.0837,1.0838,1.0838,1.0838,1.0915,1.0899,1.0895,1.088,1.0875,1.0868,1.0852,1.0854,1.0839,1.0824,1.0831,1.081,1.0803,1.0785,1.0779,1.0762,1.0773,1.0763,1.076,1.0757,1.0753,1.0826,1.0759,1.076,1.076,1.076,1.076,0,1.0845,1.0844,1.083,1.0819,1.0807,1.0821,1.0813,1.0801,1.0783,1.0776,1.0763,1.0742,1.0725,1.0724,1.0708,1.0694,1.0699,1.069,1.069,1.0689,1.0745,1.0752,1.0686,1.0686,1.0686,1.0686,1.0686,1.0686,1.0807,1.078,1.0785,1.0756,1.0754,1.0735,1.0729,1.0721,1.0716,1.0692,1.0679,1.0679,1.0674,1.0658,1.0642,1.0643,1.0635,1.0623,1.0625,1.0677,1.0685,1.0692,1.0699,1.0622,1.0622,1.057,1.057,1.0569]}]]